GW0828 Weather Reports


Display with metric or nautical units.
time (UTC)temp
F
wind
direction
speed
MPH
gust
MPH
rain 1hr
in
rain 24hr
in
rain mn
in
humidity
%
barometer
mb
20260905065035 68 0 0.0 3.0 0.00 0.00 0.00 51 1016.4
20260905064558 69 352 0.0 3.0 0.00 0.00 0.00 52 1016.4
20260905064038 69 357 0.0 4.0 0.00 0.00 0.00 49 1016.3
20260905063536 69 40 0.0 5.0 0.00 0.00 0.00 50 1016.3
20260905063053 68 49 2.0 5.0 0.00 0.00 0.00 49 1016.3
20260905062538 68 19 3.0 5.0 0.00 0.00 0.00 50 1016.3
20260905062035 68 17 2.0 5.0 0.00 0.00 0.00 51 1016.3
20260905061600 69 12 3.0 5.0 0.00 0.00 0.00 51 1016.3
20260905061038 69 352 1.0 4.0 0.00 0.00 0.00 49 1016.4
20260905060536 70 28 2.0 4.0 0.00 0.00 0.00 49 1016.4
20260905060105 70 0 1.0 4.0 0.00 0.00 0.00 48 1016.4
20260905055536 71 0 0.0 2.0 0.00 0.00 0.00 47 1016.5
20260905055037 71 0 0.0 2.0 0.00 0.00 0.00 47 1016.5
20260905054605 71 2 1.0 5.0 0.00 0.00 0.00 45 1016.4
20260905054036 72 0 0.0 5.0 0.00 0.00 0.00 46 1016.4
20260905053536 72 24 1.0 4.0 0.00 0.00 0.00 47 1016.4
20260905053057 72 24 1.0 4.0 0.00 0.00 0.00 47 1016.3
20260905052538 72 0 0.0 2.0 0.00 0.00 0.00 46 1016.4
20260905052037 72 5 0.0 2.0 0.00 0.00 0.00 50 1016.4
20260905051607 72 352 0.0 5.0 0.00 0.00 0.00 44 1016.4
20260905051037 72 0 0.0 5.0 0.00 0.00 0.00 46 1016.4
20260905050537 72 10 2.0 6.0 0.00 0.00 0.00 46 1016.4
20260905050106 73 37 2.0 6.0 0.00 0.00 0.00 48 1016.5
20260905045539 73 339 1.0 5.0 0.00 0.00 0.00 45 1016.6
20260905045037 73 228 1.0 5.0 0.00 0.00 0.00 45 1016.8
20260905044600 73 220 2.0 5.0 0.00 0.00 0.00 43 1016.7
20260905044036 73 66 1.0 4.0 0.00 0.00 0.00 45 1016.7
20260905043537 73 325 2.0 4.0 0.00 0.00 0.00 44 1016.5
20260905043057 72 31 0.0 2.0 0.00 0.00 0.00 46 1016.6
20260905042538 72 331 0.0 2.0 0.00 0.00 0.00 54 1016.6
20260905042037 72 331 0.0 2.0 0.00 0.00 0.00 45 1016.6
20260905041601 72 0 0.0 3.0 0.00 0.00 0.00 49 1016.8
20260905041037 73 295 0.0 3.0 0.00 0.00 0.00 51 1016.7
20260905040537 72 70 0.0 2.0 0.00 0.00 0.00 44 1016.8
20260905040110 72 70 0.0 3.0 0.00 0.00 0.00 45 1016.7
20260905035537 72 70 0.0 3.0 0.00 0.00 0.00 54 1016.7
20260905035037 73 333 0.0 2.0 0.00 0.00 0.00 56 1016.6
20260905034558 73 352 0.0 2.0 0.00 0.00 0.00 50 1016.6
20260905034037 74 0 0.0 2.0 0.00 0.00 0.00 48 1016.6
20260905033537 75 0 0.0 2.0 0.00 0.00 0.00 45 1016.6
20260905033108 75 0 0.0 2.0 0.00 0.00 0.00 45 1016.6
20260905032537 75 0 0.0 2.0 0.00 0.00 0.00 40 1016.5
20260905032037 76 65 0.0 1.0 0.00 0.00 0.00 40 1016.5
20260905031608 76 0 0.0 3.0 0.00 0.00 0.00 39 1016.4
20260905031038 76 0 0.0 3.0 0.00 0.00 0.00 38 1016.4
20260905030537 76 67 1.0 4.0 0.00 0.00 0.00 37 1016.3
20260905030109 77 65 1.0 4.0 0.00 0.00 0.00 39 1016.4
20260905025541 77 75 2.0 4.0 0.00 0.00 0.00 39 1016.3
20260905025034 77 66 2.0 6.0 0.00 0.00 0.00 41 1016.3
20260905024607 77 79 2.0 6.0 0.00 0.00 0.00 38 1016.2
20260905024040 77 84 2.0 4.0 0.00 0.00 0.00 38 1016.1
20260905023537 77 87 2.0 5.0 0.00 0.00 0.00 36 1016.0
20260905023101 78 86 2.0 5.0 0.00 0.00 0.00 37 1015.9
20260905022536 78 82 2.0 6.0 0.00 0.00 0.00 36 1015.9
20260905022037 78 85 2.0 6.0 0.00 0.00 0.00 36 1015.8
20260905021611 78 75 2.0 4.0 0.00 0.00 0.00 37 1015.8
20260905021036 79 79 2.0 4.0 0.00 0.00 0.00 35 1015.7
20260905020538 79 82 3.0 6.0 0.00 0.00 0.00 35 1015.7
20260905020058 79 83 3.0 7.0 0.00 0.00 0.00 34 1015.6
20260905015538 79 71 2.0 7.0 0.00 0.00 0.00 34 1015.6
20260905015039 80 80 3.0 6.0 0.00 0.00 0.00 35 1015.6
20260905014603 80 86 3.0 4.0 0.00 0.00 0.00 32 1015.5
20260905014039 81 88 1.0 4.0 0.00 0.00 0.00 31 1015.5
20260905013538 81 100 1.0 4.0 0.00 0.00 0.00 31 1015.4
20260905013122 81 107 1.0 5.0 0.00 0.00 0.00 30 1015.4
20260905012539 82 347 2.0 5.0 0.00 0.00 0.00 30 1015.4
20260905012038 82 347 2.0 5.0 0.00 0.00 0.00 29 1015.4
20260905011610 83 347 2.0 5.0 0.00 0.00 0.00 28 1015.5
20260905011039 83 347 2.0 6.0 0.00 0.00 0.00 29 1015.3
20260905010539 83 347 2.0 7.0 0.00 0.00 0.00 28 1015.3
20260905010111 84 347 3.0 10.0 0.00 0.00 0.00 28 1015.4
20260905005538 84 76 4.0 10.0 0.00 0.00 0.00 28 1015.2
20260905005040 85 90 4.0 10.0 0.00 0.00 0.00 27 1015.3
20260905004602 85 113 5.0 10.0 0.00 0.00 0.00 25 1015.2
20260905004038 86 101 4.0 10.0 0.00 0.00 0.00 25 1015.2
20260905003539 86 81 4.0 9.0 0.00 0.00 0.00 24 1015.1
20260905003102 86 116 3.0 8.0 0.00 0.00 0.00 23 1015.0
20260905002539 87 100 2.0 8.0 0.00 0.00 0.00 23 1015.0
20260905002042 87 73 3.0 9.0 0.00 0.00 0.00 22 1015.1
20260905001559 87 113 4.0 12.0 0.00 0.00 0.00 22 1015.0
20260905001038 87 91 4.0 13.0 0.00 0.00 0.00 24 1015.1
20260905000539 87 66 6.0 13.0 0.00 0.00 0.00 24 1015.1
20260905000059 87 92 5.0 13.0 0.00 0.00 0.00 25 1015.1
20260904235538 87 81 7.0 14.0 0.00 0.00 0.00 22 1015.1
20260904235038 88 137 8.0 14.0 0.00 0.00 0.00 23 1015.1
20260904234555 88 88 9.0 16.0 0.00 0.00 0.00 23 1015.0
20260904234039 88 80 9.0 16.0 0.00 0.00 0.00 25 1015.0
20260904233543 88 84 8.0 16.0 0.00 0.00 0.00 23 1014.9
20260904233056 88 71 8.0 18.0 0.00 0.00 0.00 24 1014.9
20260904232539 88 87 11.0 18.0 0.00 0.00 0.00 23 1014.9
20260904232039 88 85 10.0 17.0 0.00 0.00 0.00 23 1014.9
20260904231557 88 93 8.0 12.0 0.00 0.00 0.00 24 1014.9
20260904231039 89 71 8.0 12.0 0.00 0.00 0.00 24 1014.9
20260904230539 89 85 5.0 11.0 0.00 0.00 0.00 27 1015.0
20260904230109 89 110 5.0 12.0 0.00 0.00 0.00 24 1015.0
20260904225539 89 88 4.0 16.0 0.00 0.00 0.00 22 1014.9
20260904225038 89 93 8.0 20.0 0.00 0.00 0.00 23 1014.9
20260904224605 89 83 11.0 20.0 0.00 0.00 0.00 23 1014.9
20260904224039 89 100 9.0 17.0 0.00 0.00 0.00 21 1014.9
20260904223538 89 81 5.0 13.0 0.00 0.00 0.00 19 1014.9
20260904223109 89 79 7.0 13.0 0.00 0.00 0.00 21 1015.0
20260904222539 90 123 7.0 13.0 0.00 0.00 0.00 19 1015.0
20260904222041 89 117 3.0 14.0 0.00 0.00 0.00 19 1014.9
20260904221627 89 97 5.0 14.0 0.00 0.00 0.00 20 1015.0
20260904221039 89 69 7.0 14.0 0.00 0.00 0.00 21 1014.9
20260904220539 89 88 7.0 14.0 0.00 0.00 0.00 22 1015.1
20260904220059 89 54 5.0 16.0 0.00 0.00 0.00 19 1015.1
20260904215540 89 92 7.0 16.0 0.00 0.00 0.00 20 1015.2
20260904215038 89 59 10.0 15.0 0.00 0.00 0.00 20 1015.2
20260904214556 89 85 9.0 13.0 0.00 0.00 0.00 21 1015.2
20260904214038 90 72 8.0 13.0 0.00 0.00 0.00 22 1015.3
20260904213539 90 94 4.0 8.0 0.00 0.00 0.00 21 1015.2
20260904213102 89 122 4.0 9.0 0.00 0.00 0.00 19 1015.3
20260904212539 89 106 4.0 11.0 0.00 0.00 0.00 22 1015.4
20260904212039 89 76 6.0 11.0 0.00 0.00 0.00 22 1015.4
20260904211558 89 85 6.0 12.0 0.00 0.00 0.00 25 1015.4
20260904211038 90 104 6.0 12.0 0.00 0.00 0.00 20 1015.4
20260904210539 90 69 7.0 12.0 0.00 0.00 0.00 20 1015.6
20260904210057 90 104 5.0 10.0 0.00 0.00 0.00 21 1015.6
20260904205538 89 154 3.0 10.0 0.00 0.00 0.00 22 1015.7
20260904205038 89 106 3.0 10.0 0.00 0.00 0.00 24 1015.8
20260904204600 89 93 3.0 17.0 0.00 0.00 0.00 23 1015.8
20260904204039 89 85 7.0 17.0 0.00 0.00 0.00 25 1015.8
20260904203540 90 67 6.0 14.0 0.00 0.00 0.00 23 1015.9
20260904203059 89 125 5.0 14.0 0.00 0.00 0.00 23 1015.9
20260904202539 89 117 5.0 14.0 0.00 0.00 0.00 23 1015.9
20260904202039 89 86 2.0 12.0 0.00 0.00 0.00 24 1015.9
20260904201621 89 56 3.0 12.0 0.00 0.00 0.00 25 1015.9
20260904201038 89 130 5.0 14.0 0.00 0.00 0.00 24 1016.1
20260904200538 89 69 5.0 14.0 0.00 0.00 0.00 24 1016.1
20260904200115 89 84 10.0 14.0 0.00 0.00 0.00 25 1016.0
20260904195538 89 108 5.0 11.0 0.00 0.00 0.00 25 1015.9
20260904195040 89 124 2.0 10.0 0.00 0.00 0.00 25 1016.1
20260904194600 89 110 2.0 12.0 0.00 0.00 0.00 22 1016.1
20260904194038 89 93 5.0 12.0 0.00 0.00 0.00 23 1016.1
20260904193538 89 75 3.0 12.0 0.00 0.00 0.00 24 1016.1
20260904193059 89 98 4.0 13.0 0.00 0.00 0.00 25 1016.2
20260904192538 89 123 3.0 13.0 0.00 0.00 0.00 24 1016.3
20260904192041 89 119 5.0 11.0 0.00 0.00 0.00 23 1016.3
20260904191556 89 156 5.0 10.0 0.00 0.00 0.00 23 1016.3
20260904191038 88 110 2.0 13.0 0.00 0.00 0.00 28 1016.3
20260904190538 88 82 7.0 13.0 0.00 0.00 0.00 28 1016.3
20260904185538 88 96 3.0 12.0 0.00 0.00 0.00 30 1016.4
20260904185039 88 123 4.0 9.0 0.00 0.00 0.00 27 1016.5
20260904184609 87 93 4.0 10.0 0.00 0.00 0.00 28 1016.5
20260904184038 88 91 3.0 10.0 0.00 0.00 0.00 28 1016.7
20260904183538 87 151 4.0 9.0 0.00 0.00 0.00 25 1016.6
20260904183105 86 90 3.0 8.0 0.00 0.00 0.00 28 1016.7
20260904182538 86 63 4.0 8.0 0.00 0.00 0.00 30 1016.8
20260904182039 86 125 4.0 9.0 0.00 0.00 0.00 32 1016.9
20260904181603 86 173 3.0 11.0 0.00 0.00 0.00 30 1017.1
20260904181038 85 170 3.0 11.0 0.00 0.00 0.00 29 1017.1
20260904180538 85 83 3.0 7.0 0.00 0.00 0.00 31 1017.1
20260904180059 85 129 3.0 9.0 0.00 0.00 0.00 29 1017.2
20260904175541 85 117 3.0 9.0 0.00 0.00 0.00 31 1017.2
20260904175038 85 154 1.0 7.0 0.00 0.00 0.00 29 1017.3
20260904174555 85 122 1.0 10.0 0.00 0.00 0.00 31 1017.3
20260904174039 84 157 1.0 10.0 0.00 0.00 0.00 37 1017.4
20260904173538 84 150 2.0 9.0 0.00 0.00 0.00 30 1017.4
20260904173101 84 97 3.0 9.0 0.00 0.00 0.00 29 1017.4
20260904172538 83 161 3.0 10.0 0.00 0.00 0.00 32 1017.3
20260904172039 83 126 4.0 10.0 0.00 0.00 0.00 37 1017.4
20260904171619 82 88 1.0 8.0 0.00 0.00 0.00 36 1017.3
20260904171038 82 194 2.0 9.0 0.00 0.00 0.00 33 1017.4
20260904170538 82 162 4.0 9.0 0.00 0.00 0.00 31 1017.4
20260904170057 82 171 2.0 11.0 0.00 0.00 0.00 32 1017.5
20260904165559 82 190 4.0 11.0 0.00 0.00 0.00 34 1017.5
20260904165040 81 86 3.0 8.0 0.00 0.00 0.00 33 1017.6
20260904164600 80 111 2.0 7.0 0.00 0.00 0.00 33 1017.7
20260904164038 80 106 1.0 5.0 0.00 0.00 0.00 36 1017.7
20260904163539 80 0 1.0 5.0 0.00 0.00 0.00 30 1017.7
20260904163104 80 187 1.0 5.0 0.00 0.00 0.00 33 1017.7
20260904162538 80 162 1.0 6.0 0.00 0.00 0.00 36 1017.6
20260904162037 79 131 3.0 6.0 0.00 0.00 0.00 39 1017.6
20260904161610 78 133 1.0 6.0 0.00 0.00 0.00 40 1017.7
20260904161038 78 137 2.0 6.0 0.00 0.00 0.00 37 1017.6
20260904160539 77 152 3.0 6.0 0.00 0.00 0.00 40 1017.6
20260904155539 76 157 2.0 5.0 0.00 0.00 0.00 44 1017.5
20260904155040 75 182 1.0 4.0 0.00 0.00 0.00 47 1017.6
20260904154600 75 0 0.0 4.0 0.00 0.00 0.00 49 1017.6
20260904154039 74 0 1.0 4.0 0.00 0.00 0.00 50 1017.6
20260904153539 73 61 1.0 4.0 0.00 0.00 0.00 50 1017.6
20260904153110 73 0 1.0 4.0 0.00 0.00 0.00 48 1017.5
20260904152538 73 178 0.0 4.0 0.00 0.00 0.00 49 1017.5
20260904152038 72 173 1.0 3.0 0.00 0.00 0.00 51 1017.6
20260904151600 72 81 1.0 4.0 0.00 0.00 0.00 51 1017.5
20260904151038 71 0 1.0 5.0 0.00 0.00 0.00 51 1017.5
20260904150540 71 81 1.0 6.0 0.00 0.00 0.00 53 1017.4
20260904150057 71 165 1.0 6.0 0.00 0.00 0.00 53 1017.3
20260904145539 70 167 1.0 7.0 0.00 0.00 0.00 53 1017.3
20260904145040 70 152 1.0 7.0 0.00 0.00 0.00 54 1017.2
20260904144610 69 158 1.0 6.0 0.00 0.00 0.00 54 1017.3
20260904144038 67 160 2.0 5.0 0.00 0.00 0.00 57 1017.2
20260904143538 65 175 2.0 4.0 0.00 0.00 0.00 60 1017.2
20260904143120 64 187 1.0 4.0 0.00 0.00 0.00 62 1017.3
20260904142538 64 154 0.0 3.0 0.00 0.00 0.00 64 1017.3
20260904142038 63 0 0.0 3.0 0.00 0.00 0.00 66 1017.2
20260904141600 62 179 1.0 3.0 0.00 0.00 0.00 66 1017.2
20260904141037 62 180 1.0 2.0 0.00 0.00 0.00 67 1017.1
20260904140541 62 0 0.0 2.0 0.00 0.00 0.00 69 1017.2
20260904140100 61 0 0.0 3.0 0.00 0.00 0.00 70 1017.1
20260904135539 61 0 0.0 5.0 0.00 0.00 0.00 69 1017.0
20260904135038 60 156 2.0 5.0 0.00 0.00 0.00 70 1016.8
20260904134559 60 173 1.0 3.0 0.00 0.00 0.00 70 1016.7
20260904134039 60 0 0.0 3.0 0.00 0.00 0.00 71 1016.6
20260904133538 59 0 0.0 3.0 0.00 0.00 0.00 72 1016.5
20260904133111 59 172 1.0 3.0 0.00 0.00 0.00 74 1016.5
20260904132538 58 214 0.0 1.0 0.00 0.00 0.00 76 1016.4
20260904132037 57 0 0.0 2.0 0.00 0.00 0.00 75 1016.2
20260904131556 56 0 0.0 2.0 0.00 0.00 0.00 76 1016.1
20260904131038 56 214 0.0 2.0 0.00 0.00 0.00 77 1016.1
20260904130537 55 0 0.0 2.0 0.00 0.00 0.00 77 1016.0
20260904130106 55 0 1.0 2.0 0.00 0.00 0.00 78 1016.0
20260904125538 55 0 0.0 1.0 0.00 0.00 0.00 77 1015.9
20260904125038 55 0 0.0 1.0 0.00 0.00 0.00 77 1015.8
20260904124557 55 233 0.0 3.0 0.00 0.00 0.00 77 1015.7
20260904124037 55 0 0.0 3.0 0.00 0.00 0.00 75 1015.7
20260904123538 55 0 1.0 5.0 0.00 0.00 0.00 75 1015.7
20260904123101 55 151 1.0 5.0 0.00 0.00 0.00 75 1015.6
20260904122538 55 144 1.0 5.0 0.00 0.00 0.00 74 1015.6
20260904122038 55 164 3.0 6.0 0.00 0.00 0.00 74 1015.6
20260904121555 55 201 0.0 6.0 0.00 0.00 0.00 73 1015.4
20260904121037 55 0 1.0 6.0 0.00 0.00 0.00 73 1015.2
20260904120538 56 254 1.0 4.0 0.00 0.00 0.00 73 1015.1
20260904120106 56 253 2.0 4.0 0.00 0.00 0.00 73 1015.2
20260904115538 56 0 1.0 3.0 0.00 0.00 0.00 73 1015.2
20260904115038 56 0 0.0 2.0 0.00 0.00 0.00 73 1015.2
20260904114552 56 293 0.0 2.0 0.00 0.00 0.00 72 1015.1
20260904114038 56 0 0.0 2.0 0.00 0.00 0.00 73 1015.2
20260904113538 57 275 0.0 3.0 0.00 0.00 0.00 73 1015.2
20260904113100 57 0 0.0 3.0 0.00 0.00 0.00 73 1015.2
20260904112537 57 285 0.0 2.0 0.00 0.00 0.00 73 1015.2
20260904112037 57 0 0.0 1.0 0.00 0.00 0.00 72 1015.4
20260904111558 58 0 0.0 1.0 0.00 0.00 0.00 72 1015.4
20260904111038 58 0 0.0 1.0 0.00 0.00 0.00 71 1015.4
20260904110538 58 24 0.0 0.0 0.00 0.00 0.00 70 1015.4
20260904110104 58 0 0.0 2.0 0.00 0.00 0.00 69 1015.4
20260904105542 59 0 0.0 3.0 0.00 0.00 0.00 68 1015.5
20260904105038 59 0 1.0 6.0 0.00 0.00 0.00 68 1015.5
20260904104600 59 335 1.0 6.0 0.00 0.00 0.00 68 1015.4
20260904104038 59 31 3.0 5.0 0.00 0.00 0.00 69 1015.4
20260904103541 59 22 1.0 3.0 0.00 0.00 0.00 69 1015.4
20260904103059 59 65 1.0 4.0 0.00 0.00 0.00 71 1015.4
20260904102538 59 63 1.0 7.0 0.00 0.00 0.00 69 1015.4
20260904102038 59 31 2.0 7.0 0.00 0.00 0.00 68 1015.2
20260904101557 60 6 2.0 7.0 0.00 0.00 0.00 68 1015.1
20260904101040 60 18 3.0 8.0 0.00 0.00 0.00 68 1015.2
20260904100540 59 23 4.0 8.0 0.00 0.00 0.00 67 1015.1
20260904100056 59 320 3.0 8.0 0.00 0.00 0.00 67 1015.1
20260904095538 59 13 4.0 9.0 0.00 0.00 0.00 67 1015.1
20260904095038 60 21 4.0 10.0 0.00 0.00 0.00 67 1015.1
20260904094600 60 34 4.0 10.0 0.00 0.00 0.00 67 1015.1
20260904094038 60 342 4.0 8.0 0.00 0.00 0.00 68 1015.2
20260904093538 60 23 3.0 8.0 0.00 0.00 0.00 68 1015.1
20260904093058 60 25 4.0 8.0 0.00 0.00 0.00 68 1015.2
20260904092537 60 6 3.0 7.0 0.00 0.00 0.00 68 1015.1
20260904092038 60 11 2.0 5.0 0.00 0.00 0.00 67 1015.1
20260904091554 61 8 3.0 5.0 0.00 0.00 0.00 67 1015.1
20260904091038 61 24 3.0 6.0 0.00 0.00 0.00 67 1015.2
20260904090538 62 10 3.0 6.0 0.00 0.00 0.00 67 1015.1
20260904090059 62 18 2.0 6.0 0.00 0.00 0.00 65 1015.1
20260904085538 61 313 1.0 4.0 0.00 0.00 0.00 64 1015.1
20260904085038 61 280 1.0 4.0 0.00 0.00 0.00 65 1015.2
20260904084601 61 275 0.0 4.0 0.00 0.00 0.00 65 1015.1
20260904084041 61 320 1.0 3.0 0.00 0.00 0.00 65 1015.1
20260904083540 61 0 0.0 4.0 0.00 0.00 0.00 64 1015.2
20260904083105 61 0 0.0 6.0 0.00 0.00 0.00 64 1015.2
20260904082538 62 248 2.0 6.0 0.00 0.00 0.00 64 1015.2
20260904082039 62 241 3.0 4.0 0.00 0.00 0.00 65 1015.1
20260904081601 62 246 1.0 7.0 0.00 0.00 0.00 64 1015.1
20260904081041 62 82 0.0 7.0 0.00 0.00 0.00 63 1015.2
20260904080540 62 78 2.0 3.0 0.00 0.00 0.00 63 1015.1
20260904080118 63 0 0.0 4.0 0.00 0.00 0.00 62 1014.9
20260904075538 63 337 0.0 4.0 0.00 0.00 0.00 62 1014.9
20260904075038 63 13 0.0 2.0 0.00 0.00 0.00 63 1015.0
20260904074557 63 31 1.0 3.0 0.00 0.00 0.00 62 1015.0
20260904074041 63 0 0.0 3.0 0.00 0.00 0.00 61 1015.0
20260904073537 63 15 1.0 3.0 0.00 0.00 0.00 60 1015.0
20260904073111 64 0 0.0 2.0 0.00 0.00 0.00 61 1015.1
20260904072542 64 0 0.0 3.0 0.00 0.00 0.00 61 1015.0
20260904072038 64 347 1.0 3.0 0.00 0.00 0.00 59 1015.1
20260904071603 64 347 1.0 3.0 0.00 0.00 0.00 58 1014.9
20260904071038 65 347 0.0 2.0 0.00 0.00 0.00 58 1014.7
20260904070538 65 347 0.0 2.0 0.00 0.00 0.00 58 1014.7
20260904070101 65 0 0.0 2.0 0.00 0.00 0.00 57 1014.8
20260904065537 65 0 0.0 2.0 0.00 0.00 0.00 57 1014.8